Location: Stockholm
(59.3330°N, 18.0500°E)
Time: 22:34:41
(UTC+01:00)

N. Korean satellite - Visible Passes

Search period start: 28 November 2022 00:00
Search period end: 08 December 2022 00:00
Orbit: 422 x 454 km, 97.3° (Epoch: 28 November)

Date Brightness Start Highest point End Pass type
(mag) Time Alt. Az. Time Alt. Az. Time Alt. Az.
28 Nov 7.0 05:13:35 10° NNE 05:17:00 58° ESE 05:20:23 10° S visible
28 Nov 7.7 06:46:37 10° N 06:49:15 21° WNW 06:51:52 10° WSW visible
28 Nov 6.4 15:51:39 10° SSE 15:55:02 86° ENE 15:58:29 10° NNW visible
28 Nov 9.8 17:26:24 10° WSW 17:28:05 13° W 17:29:48 10° NW visible
29 Nov 8.7 04:35:13 10° NE 04:38:09 25° E 04:41:02 10° SSE visible
29 Nov 6.8 06:07:31 10° N 06:10:48 41° WNW 06:14:03 10° SW visible
29 Nov 8.7 16:46:04 10° SSW 16:49:02 28° W 16:52:03 10° NNW visible
30 Nov 9.9 03:57:41 10° ENE 03:59:02 12° E 04:00:24 10° ESE visible
30 Nov 6.4 05:28:41 10° NNE 05:32:10 83° ESE 05:35:35 10° SSW visible
30 Nov 8.0 07:02:01 10° NNW 07:04:14 16° NW 07:06:26 10° W visible
30 Nov 6.9 16:06:46 10° S 16:10:09 67° WSW 16:13:35 10° NNW visible
01 Dec 8.1 04:50:06 10° NNE 04:53:17 34° E 04:56:26 10° SSE visible
01 Dec 7.2 06:22:42 10° N 06:25:47 31° WNW 06:28:51 10° SW visible
01 Dec 9.3 17:01:31 10° SW 17:04:10 21° W 17:06:51 10° NW visible
02 Dec 9.5 04:12:00 10° NE 04:14:11 16° E 04:16:22 10° SE visible
02 Dec 6.3 05:43:41 10° NNE 05:47:08 71° WNW 05:50:32 10° SSW visible
02 Dec 8.3 07:17:26 10° NNW 07:19:03 13° NW 07:20:40 10° W visible
02 Dec 7.6 16:21:50 10° S 16:25:08 47° W 16:28:28 10° NNW visible
03 Dec 7.4 05:04:54 10° NNE 05:08:16 47° E 05:11:34 10° S visible
03 Dec 7.5 06:37:46 10° N 06:40:35 24° WNW 06:43:23 10° WSW visible
03 Dec 6.4 15:42:51 10° SSE 15:46:14 70° ENE 15:49:40 10° NNW visible
03 Dec 9.6 17:17:00 10° SW 17:19:10 16° W 17:21:21 10° NW visible
04 Dec 9.0 04:26:29 10° NE 04:29:10 21° E 04:31:49 10° SE visible
04 Dec 6.5 05:58:34 10° N 06:01:55 50° WNW 06:05:14 10° SW visible
04 Dec 8.3 16:36:50 10° SSW 16:39:59 34° W 16:43:09 10° NNW visible
05 Dec 6.7 05:19:36 10° NNE 05:23:03 67° ESE 05:26:26 10° S visible
05 Dec 7.8 06:52:44 10° N 06:55:12 19° WNW 06:57:39 10° WSW visible
05 Dec 6.5 15:57:32 10° SSE 16:00:57 84° WSW 16:04:24 10° NNW visible
05 Dec 9.9 17:32:41 10° WSW 17:34:03 12° W 17:35:24 10° WNW visible
06 Dec 8.5 04:40:56 10° NNE 04:43:56 28° E 04:46:54 10° SSE visible
06 Dec 6.9 06:13:20 10° N 06:16:32 37° WNW 06:19:41 10° SW visible
06 Dec 8.9 16:51:49 10° SSW 16:54:42 25° W 16:57:38 10° NW visible
07 Dec 9.7 04:02:56 10° ENE 04:04:36 13° E 04:06:15 10° ESE visible
07 Dec 6.3 05:34:12 10° NNE 05:37:39 88° WNW 05:41:03 10° SSW visible
07 Dec 8.1 07:07:39 10° NNW 07:09:39 15° NW 07:11:38 10° W visible
07 Dec 7.1 16:12:09 10° S 16:15:31 60° WSW 16:18:56 10° NNW visible
